| time (UTC) | temp F | wind direction | speed knots | gust knots | rain 1hr in | rain 24hr in | rain mn in | humidity % | barometer mb |
| 20260504044531 | 55 | 0 | 0.0 | 0.0 | 0.00 | 0.00 | 0.00 | 86 | 1020.3 |
| 20260504043045 | 55 | 0 | 0.0 | 0.0 | 0.00 | 0.00 | 0.00 | 85 | 1020.4 |
| 20260504041537 | 56 | 0 | 0.0 | 0.0 | 0.00 | 0.00 | 0.00 | 84 | 1020.4 |
| 20260504040035 | 57 | 0 | 0.0 | 0.0 | 0.00 | 0.00 | 0.00 | 83 | 1020.2 |
| 20260504034534 | 57 | 0 | 0.0 | 0.0 | 0.00 | 0.00 | 0.00 | 84 | 1020.2 |
| 20260504033037 | 57 | 0 | 0.0 | 0.0 | 0.00 | 0.00 | 0.00 | 82 | 1020.3 |
| 20260504031535 | 57 | 0 | 0.0 | 0.0 | 0.00 | 0.00 | 0.00 | 81 | 1020.3 |
| 20260504030035 | 58 | 0 | 0.0 | 0.0 | 0.00 | 0.00 | 0.00 | 80 | 1020.2 |
| 20260504024536 | 58 | 0 | 0.0 | 0.0 | 0.00 | 0.00 | 0.00 | 79 | 1020.2 |
| 20260504023034 | 59 | 0 | 0.0 | 0.0 | 0.00 | 0.00 | 0.00 | 78 | 1020.1 |
| 20260504021533 | 59 | 0 | 0.0 | 0.0 | 0.00 | 0.00 | 0.00 | 77 | 1020.0 |
| 20260504020036 | 60 | 0 | 0.0 | 0.0 | 0.00 | 0.00 | 0.00 | 74 | 1019.9 |
| 20260504014538 | 62 | 0 | 0.0 | 0.0 | 0.00 | 0.00 | 0.00 | 71 | 1019.9 |
| 20260504013047 | 63 | 0 | 0.0 | 0.0 | 0.00 | 0.00 | 0.00 | 69 | 1019.6 |
| 20260504011537 | 64 | 0 | 0.0 | 0.0 | 0.00 | 0.00 | 0.00 | 66 | 1019.5 |
| 20260504010039 | 64 | 0 | 0.0 | 1.7 | 0.00 | 0.00 | 0.00 | 65 | 1019.3 |
| 20260504004532 | 65 | 0 | 0.0 | 0.9 | 0.00 | 0.00 | 0.00 | 63 | 1019.1 |
| 20260504003055 | 66 | 0 | 0.0 | 0.0 | 0.00 | 0.00 | 0.00 | 62 | 1018.9 |
| 20260504001538 | 67 | 0 | 0.0 | 0.0 | 0.00 | 0.00 | 0.00 | 59 | 1018.7 |
| 20260504000037 | 69 | 0 | 0.0 | 0.0 | 0.00 | 0.00 | 0.00 | 60 | 1018.8 |
| 20260503234535 | 72 | 0 | 0.0 | 4.3 | 0.00 | 0.00 | 0.00 | 45 | 1018.7 |
| 20260503233033 | 73 | 0 | 0.0 | 1.7 | 0.00 | 0.00 | 0.00 | 44 | 1018.8 |
| 20260503231532 | 73 | 0 | 0.0 | 3.5 | 0.00 | 0.00 | 0.00 | 42 | 1018.9 |
| 20260503230035 | 74 | 0 | 0.0 | 3.5 | 0.00 | 0.00 | 0.00 | 43 | 1018.9 |
| 20260503224535 | 74 | 0 | 1.7 | 7.8 | 0.00 | 0.00 | 0.00 | 42 | 1019.0 |
| 20260503223036 | 74 | 0 | 0.0 | 1.7 | 0.00 | 0.00 | 0.00 | 41 | 1019.0 |
| 20260503221536 | 75 | 0 | 0.0 | 7.0 | 0.00 | 0.00 | 0.00 | 42 | 1019.0 |
| 20260503220035 | 75 | 0 | 0.0 | 3.5 | 0.00 | 0.00 | 0.00 | 42 | 1019.1 |
| 20260503214530 | 76 | 236 | 0.0 | 2.6 | 0.00 | 0.00 | 0.00 | 41 | 1019.1 |
| 20260503213033 | 76 | 0 | 2.6 | 7.0 | 0.00 | 0.00 | 0.00 | 42 | 1019.1 |
| 20260503211535 | 77 | 352 | 0.0 | 5.2 | 0.00 | 0.00 | 0.00 | 43 | 1019.3 |
| 20260503210034 | 75 | 331 | 0.9 | 3.5 | 0.00 | 0.00 | 0.00 | 39 | 1019.4 |
| 20260503204532 | 76 | 340 | 1.7 | 5.2 | 0.00 | 0.00 | 0.00 | 40 | 1019.6 |
| 20260503203029 | 77 | 0 | 0.9 | 5.2 | 0.00 | 0.00 | 0.00 | 35 | 1019.9 |
| 20260503201538 | 75 | 341 | 0.9 | 6.1 | 0.00 | 0.00 | 0.00 | 36 | 1020.2 |
| 20260503200032 | 76 | 0 | 0.9 | 4.3 | 0.00 | 0.00 | 0.00 | 40 | 1020.5 |
| 20260503194533 | 76 | 300 | 0.9 | 3.5 | 0.00 | 0.00 | 0.00 | 39 | 1020.8 |
| 20260503193032 | 76 | 291 | 2.6 | 7.0 | 0.00 | 0.00 | 0.00 | 38 | 1020.9 |
| 20260503191536 | 76 | 48 | 1.7 | 10.4 | 0.00 | 0.00 | 0.00 | 33 | 1021.1 |
| 20260503190030 | 75 | 41 | 1.7 | 7.8 | 0.00 | 0.00 | 0.00 | 42 | 1021.5 |
| 20260503184531 | 75 | 323 | 1.7 | 8.7 | 0.00 | 0.00 | 0.00 | 41 | 1021.7 |
| 20260503183032 | 76 | 19 | 1.7 | 6.1 | 0.00 | 0.00 | 0.00 | 37 | 1021.8 |
| 20260503181530 | 75 | 360 | 0.9 | 5.2 | 0.00 | 0.00 | 0.00 | 41 | 1022.0 |
| 20260503180043 | 74 | 333 | 1.7 | 7.8 | 0.00 | 0.00 | 0.00 | 42 | 1022.2 |
| 20260503174532 | 73 | 94 | 0.9 | 6.1 | 0.00 | 0.00 | 0.00 | 41 | 1022.6 |
| 20260503173032 | 73 | 75 | 2.6 | 7.8 | 0.00 | 0.00 | 0.00 | 38 | 1022.8 |
| 20260503171531 | 73 | 23 | 1.7 | 4.3 | 0.00 | 0.00 | 0.00 | 36 | 1023.0 |
| 20260503081535 | 47 | 0 | 0.0 | 0.0 | 0.00 | 0.22 | 0.00 | 89 | 1020.8 |
| 20260503071535 | 48 | 0 | 0.0 | 0.0 | 0.00 | 0.36 | 0.00 | 87 | 1020.3 |
| 20260503060105 | 51 | 0 | 0.0 | 0.0 | 0.00 | 0.50 | 0.00 | 82 | 1020.3 |
| 20260503054538 | 54 | 0 | 0.0 | 0.0 | 0.00 | 0.67 | 0.00 | 77 | 1020.1 |
| 20260503053034 | 54 | 0 | 0.0 | 0.0 | 0.00 | 0.67 | 0.00 | 77 | 1020.0 |